Wind_Speed
8 7 6 5 4 4 6 5 7 6 6 9 11 11 10 11 13 11 8 9 13 14 9 9 12 12 13 14 14 14 13 15 15 14 13 11 9 8 6 6 4 3 3 6 7 5 4 5 7
7 6 6 5 3 5 8 9 7 7 9 11 12 13 15 18 17 18 19 20 18 18 15 10 9 9 14 16 16 16 15 16 17 17 16 15 12 10 9 8 6 4 5 7 8 7 5 3 4
7 7 5 3 6 9 6 8 9 8 11 14 16 17 19 21 21 20 20 21 21 21 22 22 19 17 15 15 17 19 19 19 19 19 18 17 15 13 11 9 7 6 6 8 9 9 7 5 4
7 7 6 10 11 10 11 7 10 12 14 15 17 19 19 20 19 22 22 23 23 24 23 23 23 23 21 24 23 22 23 22 21 20 19 19 18 16 14 12 9 8 7 7 9 10 10 7 6
8 9 12 12 11 12 12 13 14 14 15 17 20 22 22 23 25 26 26 25 25 26 27 26 25 24 23 24 24 25 25 24 24 23 21 20 19 18 17 14 12 10 9 8 8 9 12 9 7
12 11 10 12 10 11 14 15 15 15 16 19 20 21 22 22 23 26 27 27 26 26 27 28 26 26 27 26 27 28 27 27 26 24 24 22 21 20 19 17 14 13 12 12 11 11 12 11 11
13 12 12 13 10 11 14 16 17 16 16 17 18 22 23 22 21 25 28 29 28 28 28 29 31 32 30 30 30 31 31 30 28 26 25 24 22 22 21 20 18 16 14 13 13 13 13 13 13
12 12 14 12 11 14 12 13 12 13 15 17 20 18 24 28 28 28 29 30 31 32 33 34 33 32 33 31 32 34 35 33 31 30 28 27 25 25 22 20 20 19 17 15 14 14 14 14 14
12 13 12 12 8 7 6 10 13 16 18 20 22 25 26 27 27 28 27 29 31 34 35 35 37 36 35 34 31 33 37 37 37 33 31 30 27 25 23 23 22 21 19 17 16 15 15 15 15
13 13 8 7 8 10 12 14 17 17 19 20 23 26 26 24 24 24 25 27 30 34 37 40 40 39 35 34 33 30 33 37 37 35 30 29 27 25 23 24 24 24 23 21 20 19 17 16 15
11 10 9 9 11 13 14 17 19 22 20 23 21 18 18 20 22 24 25 28 31 34 36 37 37 36 35 33 34 31 30 30 32 34 32 27 26 26 25 23 23 22 22 22 23 23 21 21 19
8 8 9 11 13 17 18 17 20 19 22 20 20 20 20 21 22 23 24 26 30 35 39 37 31 29 32 30 31 32 30 28 27 25 25 23 24 24 25 24 24 24 24 23 23 23 25 26 25
8 8 11 14 17 15 17 20 22 20 15 17 19 20 21 21 23 23 24 26 29 36 38 31 25 24 26 31 30 30 32 28 27 25 23 24 25 26 26 25 26 26 26 25 25 25 23 26 27
10 10 14 14 13 14 19 20 19 17 14 14 17 19 20 21 22 20 22 22 26 30 25 20 21 22 23 23 25 24 27 28 25 23 23 24 24 24 26 26 26 26 26 26 27 27 28 29 30
11 13 14 9 10 18 20 13 16 13 14 12 15 17 18 20 19 19 19 22 25 24 17 13 16 21 21 22 20 25 26 21 22 31 23 19 23 24 24 25 25 26 26 27 28 29 30 31 32
12 9 6 12 15 19 21 15 12 17 16 10 15 16 16 18 17 16 17 20 21 20 17 13 13 19 27 22 21 11 25 18 13 20 21 15 19 22 23 24 25 27 28 28 30 31 32 33 33
6 10 13 12 21 20 20 22 14 21 18 8 13 15 16 16 16 16 16 18 20 20 19 16 16 15 11 16 19 16 17 18 17 19 13 15 17 22 24 24 25 28 29 31 33 33 34 35 36
9 14 16 19 21 23 18 26 19 15 13 6 11 15 15 15 15 14 14 16 17 17 15 15 13 9 6 11 14 13 16 19 19 19 19 18 20 22 24 26 28 30 31 32 34 36 36 35 35
11 14 19 20 18 24 26 25 15 14 7 6 9 16 17 15 15 14 13 14 14 13 11 11 10 7 2 8 10 13 17 20 20 20 22 22 23 25 27 28 30 32 33 33 34 35 36 36 37
13 16 17 17 25 27 26 20 16 5 6 8 8 13 17 17 16 16 14 13 12 11 11 8 6 4 1 6 10 12 15 17 19 21 24 25 26 27 28 29 29 31 32 32 33 34 36 36 36
13 14 17 22 27 28 21 12 4 5 7 7 8 12 15 19 19 17 15 14 13 11 10 9 6 3 3 6 9 12 15 17 19 22 24 25 26 26 26 27 27 27 28 29 30 32 34 34 34
14 15 19 22 25 11 16 6 10 9 8 7 8 11 14 17 19 19 16 13 12 11 11 11 9 9 9 10 11 13 15 17 19 21 23 24 26 24 24 24 24 24 24 25 26 28 29 32 32
13 19 21 26 18 15 5 5 4 7 8 9 10 12 14 16 20 19 17 14 12 12 11 10 11 12 14 16 18 17 17 18 20 22 22 23 24 24 22 22 21 22 22 22 24 25 26 27 29
18 16 21 13 9 2 2 3 4 4 7 9 12 14 14 16 19 19 17 15 13 12 12 12 12 13 13 14 17 19 19 20 20 19 21 23 25 24 24 23 22 22 22 23 23 24 24 25 26
10 14 6 4 2 4 2 8 10 8 10 11 13 15 15 16 17 15 15 15 15 14 13 11 10 11 14 15 16 18 20 21 21 20 22 22 23 24 25 25 25 25 25 25 25 25 25 25 25
12 9 1 4 2 5 21 8 3 6 9 11 14 14 14 14 16 13 13 16 18 18 17 14 13 11 11 12 13 14 16 19 21 24 25 24 24 24 26 27 28 28 28 29 29 28 28 28 27
8 4 6 6 8 4 6 8 12 13 11 12 17 16 14 13 13 14 16 17 18 21 21 17 16 16 15 14 13 14 15 16 16 18 20 24 28 29 30 31 32 32 32 33 33 32 31 32 31
10 10 5 4 1 4 7 11 14 10 13 18 20 20 20 21 23 22 24 25 25 22 20 18 16 14 14 15 16 17 17 18 18 18 19 21 21 24 26 29 33 35 37 37 38 38 36 36 35
15 11 7 7 6 4 3 6 5 6 12 19 21 26 27 27 33 31 30 29 27 25 20 17 18 18 17 18 18 18 21 23 24 24 24 24 24 24 25 26 27 28 30 32 35 36 37 39 39
19 18 14 8 5 9 8 15 24 22 22 26 28 25 32 40 34 35 28 23 22 21 18 16 17 19 20 22 23 25 27 27 28 28 29 31 30 30 30 29 29 28 29 30 32 33 35 37 38
Wind_Direction
197 180 174 167 188 211 214 233 246 248 259 258 273 281 286 287 289 282 262 247 275 283 291 275 282 283 269 279 276 287 272 262 262 262 264 258 256 260 262 259 273 279 217 184 177 177 177 186 179
178 182 196 193 209 220 253 257 238 238 255 276 281 283 284 288 288 282 278 276 273 269 269 276 270 263 259 264 266 271 265 264 264 263 260 259 258 254 251 257 258 267 216 196 190 187 193 194 200
197 209 220 221 223 236 266 246 236 241 265 271 282 289 290 287 284 279 275 277 279 274 269 265 264 267 265 262 266 265 260 258 257 257 260 260 257 255 253 254 250 249 236 214 205 210 207 206 225
214 229 238 237 245 247 253 251 253 259 268 281 287 294 292 291 288 282 280 278 278 277 274 271 269 266 264 266 264 259 258 258 252 252 250 252 256 255 251 248 241 237 239 235 225 224 215 221 236
234 237 238 247 243 244 246 251 258 269 278 286 291 294 292 292 290 288 286 283 279 276 276 273 271 265 261 256 259 255 252 253 253 253 249 245 246 249 249 246 245 232 224 228 229 235 219 241 235
230 232 244 252 248 242 245 257 265 271 281 286 291 291 290 287 288 290 289 288 285 281 275 271 269 268 263 251 248 250 251 250 249 247 245 242 240 240 242 242 239 240 231 219 221 227 229 229 233
227 236 256 258 250 253 257 265 270 282 288 292 296 296 295 296 293 291 291 291 291 289 284 277 270 266 263 256 244 242 246 241 241 242 242 241 237 236 236 236 238 236 237 235 223 224 234 238 239
240 248 259 269 264 256 262 270 282 286 291 296 298 293 296 298 299 297 295 295 293 291 288 284 276 268 263 254 249 241 240 240 236 234 233 234 234 234 230 233 232 234 234 234 236 230 230 236 241
249 254 266 269 271 272 277 282 290 294 298 302 298 299 296 293 293 293 294 295 295 293 290 284 281 276 264 261 251 247 243 240 237 233 230 232 234 238 239 235 235 235 237 236 235 238 237 238 242
257 260 269 278 289 291 295 294 293 294 301 301 305 301 299 298 295 295 296 296 295 293 290 287 284 279 277 263 259 255 249 244 238 234 232 228 230 229 230 235 236 235 239 239 240 240 242 244 246
262 268 279 290 294 297 300 294 296 302 309 306 304 296 291 295 297 299 301 302 301 297 293 283 278 276 276 271 260 255 252 251 245 242 238 232 229 228 227 230 234 238 240 244 246 244 242 244 245
264 280 290 289 298 296 298 301 294 300 302 304 303 299 300 298 298 304 310 313 310 305 300 295 289 275 263 263 263 253 242 242 243 239 239 238 233 228 230 232 238 242 242 241 244 242 243 244 245
284 292 297 289 293 293 300 307 307 309 301 302 304 306 303 303 311 316 316 316 317 311 300 291 277 283 264 263 252 250 251 235 233 233 235 238 241 241 240 242 242 243 245 244 242 242 244 245 248
288 297 296 290 290 301 312 312 306 295 292 302 312 310 309 312 314 316 317 321 324 324 318 294 269 273 272 266 260 243 252 255 253 227 231 236 245 247 248 246 245 246 247 248 247 247 245 246 248
294 295 298 297 305 313 317 318 309 282 290 305 316 317 317 313 319 320 319 327 335 344 330 308 261 267 272 252 255 269 250 245 268 233 219 239 242 246 248 250 251 250 251 254 256 255 253 251 250
294 295 317 316 324 319 318 320 310 289 291 288 318 325 324 323 324 319 323 330 334 353 356 331 281 264 276 274 252 289 255 266 266 282 214 242 249 253 253 253 256 258 258 257 258 261 261 259 256
302 313 321 333 324 321 317 304 310 289 286 292 330 335 336 334 328 323 323 331 338 354 355 341 328 302 300 253 263 261 228 261 252 261 259 256 257 254 260 262 263 265 267 267 264 262 262 262 262
323 329 327 333 319 312 307 307 315 261 286 281 348 352 344 340 334 327 320 333 338 351 356 349 347 319 241 250 240 226 231 236 242 247 255 254 255 259 262 267 268 269 270 270 270 270 268 265 263
331 333 328 324 323 318 321 319 294 285 245 276 345 2 356 345 341 335 327 326 333 345 355 1 7 17 290 240 223 221 222 228 235 241 250 254 254 258 262 265 268 270 269 269 268 268 268 267 266
337 333 329 323 323 320 322 324 304 277 235 262 321 358 6 359 349 340 333 319 323 332 344 357 12 34 98 208 216 224 234 239 242 246 249 254 257 258 260 264 265 267 269 269 267 266 264 265 264
334 328 325 322 320 321 326 320 289 238 242 264 328 347 357 6 360 346 332 328 321 323 322 326 327 300 244 234 247 249 249 251 257 257 256 258 260 262 261 262 262 263 265 266 266 265 264 263 260
326 323 319 318 317 312 318 283 259 245 246 264 313 329 343 356 356 351 339 324 320 317 309 305 297 286 278 268 256 260 258 258 260 260 263 264 262 261 260 261 262 261 263 265 266 267 266 265 263
323 324 320 311 306 305 291 259 257 250 250 271 296 320 337 351 355 348 338 328 319 306 304 302 298 287 278 275 274 266 262 264 265 268 263 260 261 265 263 261 262 264 266 267 269 270 272 270 267
322 325 317 304 301 297 284 293 268 268 256 266 287 305 324 335 348 347 341 337 330 321 309 297 290 288 287 283 280 280 280 273 270 267 267 268 267 263 263 262 262 263 266 267 269 270 271 272 272
323 335 323 333 338 226 279 292 253 267 272 275 287 303 317 330 344 346 344 342 340 337 332 316 304 292 289 286 282 281 283 284 282 275 269 264 263 264 266 265 263 263 265 268 270 271 274 276 276
319 340 287 250 267 283 290 245 243 266 270 274 285 293 307 323 334 338 340 337 331 328 326 324 319 313 304 297 294 290 286 283 279 278 277 273 270 266 263 263 264 265 267 270 272 273 275 277 279
307 300 289 258 278 294 253 266 272 257 256 261 270 282 302 322 325 321 327 330 329 324 318 315 313 311 311 311 310 307 305 302 299 293 288 281 275 270 268 267 266 266 267 268 270 271 273 274 277
281 288 269 238 299 262 273 272 263 249 255 253 271 281 291 307 318 316 316 314 313 307 302 304 308 312 315 318 319 319 315 312 310 307 303 298 293 288 282 275 272 271 271 272 272 273 273 273 273
284 265 239 242 241 205 275 243 244 257 254 259 267 282 292 304 312 313 308 303 299 293 289 290 293 295 298 302 305 306 307 309 310 308 306 304 303 298 294 289 285 282 279 277 276 277 277 274 271
271 264 244 229 236 238 265 273 275 273 262 264 266 272 299 304 304 300 288 275 277 276 275 277 283 288 292 295 297 299 302 302 302 299 300 301 298 295 295 295 293 292 288 285 283 282 283 281 272
Height
3158 3158 3160 3162 3167 3164 3162 3162 3161 3161 3162 3162 3161 3162 3163 3161 3162 3165 3161 3161 3161 3160 3159 3159 3159 3159 3160 3161 3161 3162 3162 3162 3162 3162 3161 3160 3159 3158 3158 3157 3157 3156 3155 3155 3156 3157 3157 3157 3157
3158 3159 3161 3162 3164 3162 3160 3159 3159 3159 3159 3160 3160 3160 3160 3159 3159 3159 3158 3156 3157 3157 3157 3157 3156 3156 3157 3158 3159 3159 3160 3160 3161 3161 3160 3160 3159 3158 3157 3157 3157 3156 3156 3156 3156 3157 3157 3158 3158
3158 3159 3161 3161 3161 3158 3158 3157 3157 3158 3157 3157 3157 3158 3158 3157 3155 3154 3154 3153 3153 3154 3153 3153 3153 3154 3154 3154 3156 3157 3157 3157 3157 3158 3158 3159 3158 3157 3157 3156 3156 3156 3156 3156 3156 3157 3158 3158 3158
3158 3159 3160 3158 3157 3157 3157 3156 3156 3155 3155 3155 3155 3155 3154 3153 3152 3150 3151 3151 3150 3149 3149 3149 3150 3150 3151 3151 3152 3153 3153 3154 3153 3154 3154 3155 3156 3156 3156 3155 3155 3155 3155 3156 3156 3156 3157 3158 3158
3157 3157 3157 3154 3155 3155 3154 3154 3153 3154 3153 3153 3151 3151 3151 3150 3148 3145 3145 3146 3146 3145 3145 3146 3146 3146 3146 3147 3147 3148 3149 3150 3151 3151 3151 3151 3152 3154 3154 3154 3154 3154 3153 3154 3155 3156 3156 3157 3157
3155 3155 3154 3153 3154 3153 3152 3152 3152 3152 3151 3151 3150 3148 3147 3146 3145 3141 3140 3140 3140 3140 3139 3139 3140 3140 3141 3141 3142 3143 3143 3144 3146 3147 3147 3148 3149 3149 3151 3152 3152 3152 3152 3152 3153 3154 3155 3155 3156
3152 3153 3152 3152 3152 3151 3151 3151 3150 3150 3149 3148 3147 3145 3144 3141 3141 3139 3136 3134 3133 3133 3133 3133 3134 3134 3134 3135 3136 3136 3137 3137 3139 3141 3142 3143 3145 3145 3146 3147 3149 3149 3150 3150 3150 3151 3153 3154 3154
3152 3152 3151 3150 3150 3150 3150 3149 3148 3148 3148 3147 3145 3141 3140 3138 3135 3134 3132 3130 3129 3127 3126 3126 3126 3126 3126 3127 3128 3129 3129 3130 3131 3132 3135 3137 3139 3140 3142 3143 3144 3146 3147 3147 3149 3149 3149 3151 3152
3151 3152 3150 3149 3149 3149 3148 3147 3147 3145 3144 3143 3141 3139 3137 3135 3133 3130 3129 3127 3123 3121 3120 3118 3117 3117 3118 3119 3120 3121 3122 3123 3125 3125 3126 3130 3133 3136 3138 3139 3141 3142 3144 3145 3145 3146 3147 3147 3149
3150 3150 3149 3149 3148 3147 3146 3145 3144 3144 3142 3141 3139 3135 3132 3130 3128 3126 3124 3122 3119 3116 3113 3109 3108 3107 3109 3112 3112 3113 3114 3115 3117 3120 3120 3123 3126 3129 3132 3135 3136 3137 3139 3140 3142 3143 3144 3145 3146
3148 3148 3148 3148 3146 3145 3144 3143 3140 3139 3139 3137 3135 3133 3130 3128 3125 3123 3120 3117 3114 3110 3107 3103 3101 3101 3101 3104 3106 3107 3108 3109 3111 3114 3116 3117 3120 3123 3126 3128 3131 3132 3134 3136 3138 3139 3140 3141 3142
3147 3147 3146 3146 3145 3143 3142 3141 3138 3137 3136 3133 3131 3129 3127 3124 3122 3118 3116 3112 3109 3105 3100 3096 3094 3094 3095 3096 3098 3101 3102 3104 3106 3108 3113 3115 3117 3118 3120 3122 3125 3127 3128 3130 3132 3134 3135 3137 3138
3145 3145 3145 3144 3142 3140 3138 3137 3134 3133 3132 3130 3128 3126 3123 3120 3117 3114 3111 3109 3105 3099 3093 3090 3088 3088 3089 3089 3091 3092 3096 3098 3101 3104 3107 3110 3112 3114 3116 3117 3119 3121 3123 3125 3126 3128 3130 3131 3133
3144 3143 3142 3140 3139 3137 3136 3133 3131 3130 3129 3128 3126 3123 3119 3115 3113 3111 3108 3105 3101 3092 3084 3082 3082 3083 3084 3085 3087 3086 3090 3093 3095 3098 3101 3105 3108 3110 3112 3114 3115 3116 3118 3119 3121 3122 3123 3124 3126
3141 3141 3139 3137 3137 3135 3132 3132 3128 3127 3128 3126 3124 3121 3117 3113 3110 3107 3105 3101 3095 3088 3082 3079 3079 3080 3081 3081 3084 3085 3087 3090 3092 3094 3096 3100 3103 3105 3107 3109 3111 3112 3113 3115 3116 3117 3118 3119 3120
3139 3138 3137 3136 3134 3132 3132 3130 3128 3126 3125 3125 3122 3118 3115 3110 3107 3104 3101 3098 3093 3087 3081 3078 3078 3078 3077 3079 3081 3081 3085 3088 3089 3087 3090 3094 3098 3101 3102 3104 3105 3106 3107 3109 3110 3112 3113 3113 3114
3137 3136 3135 3135 3131 3130 3130 3126 3128 3123 3121 3121 3119 3115 3112 3108 3104 3101 3099 3095 3091 3085 3080 3076 3074 3073 3073 3075 3077 3080 3083 3085 3087 3087 3087 3091 3093 3096 3098 3099 3100 3101 3102 3103 3103 3104 3105 3107 3108
3136 3135 3133 3132 3131 3129 3127 3123 3121 3117 3117 3118 3116 3113 3110 3106 3103 3099 3096 3093 3089 3085 3080 3076 3072 3070 3072 3073 3075 3077 3079 3082 3084 3085 3085 3087 3088 3091 3093 3094 3094 3095 3096 3097 3096 3097 3097 3098 3100
3135 3133 3130 3129 3128 3125 3122 3118 3115 3114 3115 3115 3114 3111 3107 3104 3100 3098 3094 3092 3089 3085 3082 3078 3074 3071 3071 3072 3073 3074 3075 3078 3080 3081 3082 3083 3084 3085 3087 3088 3089 3089 3089 3090 3089 3089 3089 3090 3091
3133 3131 3130 3127 3125 3122 3118 3114 3110 3111 3112 3112 3111 3108 3105 3102 3098 3095 3093 3090 3088 3085 3083 3079 3076 3073 3072 3073 3074 3076 3076 3076 3076 3077 3077 3078 3079 3080 3081 3082 3083 3082 3083 3083 3082 3082 3081 3082 3083
3132 3131 3128 3126 3121 3118 3114 3110 3108 3109 3109 3109 3108 3106 3104 3101 3098 3094 3091 3088 3086 3083 3081 3079 3077 3075 3074 3074 3074 3074 3074 3075 3074 3073 3073 3073 3074 3075 3075 3076 3076 3076 3076 3076 3075 3074 3074 3074 3076
3131 3129 3126 3123 3120 3117 3115 3112 3107 3107 3107 3106 3106 3105 3103 3099 3096 3092 3090 3087 3084 3082 3080 3078 3077 3075 3074 3073 3072 3071 3071 3071 3070 3069 3069 3069 3068 3069 3069 3070 3070 3070 3069 3069 3068 3067 3067 3065 3067
3129 3126 3123 3119 3116 3115 3113 3114 3105 3105 3105 3104 3103 3102 3099 3097 3094 3091 3087 3085 3083 3081 3078 3077 3075 3074 3073 3072 3070 3069 3068 3067 3066 3066 3064 3064 3064 3064 3064 3063 3064 3063 3063 3063 3062 3061 3060 3059 3058
3127 3125 3120 3116 3115 3114 3112 3113 3104 3102 3102 3102 3101 3098 3096 3095 3092 3089 3086 3083 3081 3079 3076 3074 3073 3071 3070 3069 3068 3067 3065 3064 3062 3061 3060 3060 3060 3059 3058 3058 3058 3058 3057 3057 3056 3055 3054 3053 3052
3126 3124 3120 3119 3116 3114 3112 3111 3101 3100 3100 3099 3097 3095 3093 3091 3089 3088 3085 3083 3079 3077 3074 3072 3070 3068 3066 3065 3064 3063 3062 3061 3059 3058 3057 3056 3055 3055 3054 3053 3052 3052 3052 3051 3050 3050 3048 3046 3045
3124 3124 3125 3129 3123 3114 3110 3103 3099 3098 3098 3097 3094 3091 3090 3089 3086 3085 3083 3081 3079 3076 3074 3071 3068 3066 3063 3061 3059 3057 3056 3055 3054 3054 3053 3051 3051 3050 3048 3047 3046 3046 3046 3045 3044 3043 3042 3040 3039
3122 3122 3122 3120 3117 3116 3103 3098 3096 3094 3095 3093 3090 3088 3087 3085 3084 3082 3080 3078 3077 3074 3072 3070 3067 3064 3062 3059 3057 3055 3053 3051 3049 3048 3046 3045 3045 3043 3042 3041 3040 3039 3038 3037 3035 3035 3034 3032 3031
3120 3120 3119 3119 3119 3113 3099 3094 3090 3091 3091 3089 3087 3085 3084 3082 3079 3078 3076 3074 3072 3069 3068 3066 3064 3062 3060 3057 3055 3052 3050 3047 3045 3043 3042 3040 3038 3037 3035 3034 3032 3031 3030 3028 3026 3025 3025 3023 3023
3117 3116 3117 3117 3114 3110 3106 3089 3087 3087 3087 3085 3084 3082 3080 3079 3075 3074 3072 3069 3067 3065 3063 3062 3060 3059 3057 3054 3052 3049 3047 3044 3041 3038 3036 3034 3032 3030 3028 3026 3024 3022 3020 3018 3017 3015 3015 3013 3013
3112 3111 3113 3113 3110 3106 3101 3083 3084 3084 3084 3081 3079 3077 3074 3073 3071 3068 3065 3064 3063 3061 3060 3057 3055 3053 3051 3048 3046 3044 3041 3039 3036 3034 3031 3028 3025 3023 3020 3018 3016 3014 3012 3010 3007 3006 3005 3003 3003